SAUDISAT 5B

Last updated on Thu Jul 03 2025 00:02:30 GMT+0000 (Coordinated Universal Time)

1 43833U 18102C 25183.56187371 .00003539 00000+0 15017-3 0 9996 2 43833 97.3648 249.4247 0009852 294.9302 65.0911 15.23710511362475
UTC large
Height (km)
Speed (km/s)
/
Latitude / Longitude
Inclination (degrees)
Orbital Period (minutes)
Azimuth
Elevation
Range (km)
Doppler Factor

Next 0 passes for location: London (51.5072 / 0.1276)

Sorry there are no passes over London.